Regional Weather Roundup
Issued by NWS

Home | Current Version | Previous Version | Graphics & Text | Print | Product List | Glossary On
Versions: 1 2 3 4 5 6 7 8 9 10 11 12 13 14 15 16 17 18 19 20 21 22 23 24 25 26 27 28 29 30 31 32 33 34 35 36 37 38 39 40 41 42 43 44 45 46 47 48 49 50
000
ASUS43 KBIS 140110
RWRND

NORTH DAKOTA REGIONAL WEATHER ROUNDUP
NATIONAL WEATHER SERVICE BISMARCK ND
700 PM CST SAT FEB 13 2016

NOTE: "FAIR" INDICATES FEW OR NO CLOUDS BELOW 12,000 FEET WITH NO
SIGNIFICANT WEATHER AND/OR OBSTRUCTIONS TO VISIBILITY.


NDZ001>003-009>011-017-140200-
NORTHWEST NORTH DAKOTA

CITY           SKY/WX    TMP DP  RH WIND       PRES   REMARKS
WILLISTON      CLOUDY    23  19  85 CALM      29.78S
MINOT          SNOW      17  10  74 SE12      29.87F VSB 1/2 WCI   4
MINOT AFB      LGT SNOW  16  14  93 SE14      29.86F FOG     WCI   1
$$

NDZ018>021-031>035-040>046-140200-
SOUTHWEST NORTH DAKOTA

CITY           SKY/WX    TMP DP  RH WIND       PRES   REMARKS
BISMARCK       LGT SNOW  18  11  74 SE13      29.94R WCI   5
DICKINSON      CLOUDY    23  21  92 S10       29.77F WCI  12
GARRISON         N/A     15  11  83 S14       29.87S WCI   0
HETTINGER ARPT CLOUDY    24  21  88 CALM      29.83S
$$

NDZ004>008-012>016-024-026-027-054-140200-
NORTHEAST NORTH DAKOTA

CITY           SKY/WX    TMP DP  RH WIND       PRES   REMARKS
GRAND FORKS    CLOUDY    13   1  59 SE21      30.18F WCI  -5
GRND FRKS AFB  CLOUDY    12   1  59 S17G29    30.16F WCI  -5
DEVILS LAKE    FLURRIES   9   2  73 SE23G29   30.02F WCI -11
$$

NDZ022-023-025-028>030-036>039-047>053-140200-
SOUTHEAST NORTH DAKOTA

CITY           SKY/WX    TMP DP  RH WIND       PRES   REMARKS
FARGO          CLOUDY    14   2  58 SE17G28   30.19F WCI  -3
JAMESTOWN      CLOUDY     9   3  77 SE16      30.03F WCI  -8
$$




USA.gov is the U.S. government's official web portal to all federal, state and local government web resources and services.